Temperature
24 23 22 21 20 20 20 19 19 19 19 18 18 18 18 18 18 18 18 18 18 18 18 17 17 17 17 17 17 17 17 17 17 17 17 17 17 17 17 17 17 17 17
24 23 22 21 21 20 20 20 20 19 19 19 19 18 18 18 18 18 18 18 18 18 18 18 17 17 17 17 17 17 17 17 17 17 17 18 18 17 18 17 17 17 17
24 23 22 21 21 20 20 20 19 19 19 19 18 18 18 18 18 18 18 18 18 18 18 18 18 17 17 17 17 17 17 17 17 17 17 18 18 18 18 17 17 17 17
25 24 22 22 21 21 20 20 20 20 20 19 19 18 18 18 18 18 18 18 18 18 18 18 18 18 17 17 17 17 17 17 17 17 17 17 17 17 18 17 17 17 17
25 24 23 22 22 21 20 20 20 20 20 19 19 19 19 18 18 18 18 18 18 18 18 18 18 18 17 17 17 17 17 17 17 17 17 17 17 17 17 18 17 17 17
25 24 23 22 21 21 20 20 20 20 20 19 19 19 19 18 18 18 18 18 18 18 18 18 18 18 17 17 17 18 17 17 17 17 17 17 17 17 17 17 17 17 17
25 24 23 22 22 21 21 20 20 20 20 19 19 19 19 18 18 18 18 18 18 18 18 18 18 18 18 18 18 17 17 17 17 17 17 17 17 17 17 17 17 17 17
25 24 23 22 22 21 21 20 20 20 20 19 19 19 19 18 18 18 18 18 18 18 18 18 18 18 18 17 17 17 17 17 17 17 17 17 17 17 16 17 17 17 17
25 24 23 23 22 21 21 21 20 20 20 19 19 19 19 18 18 18 18 18 18 18 18 18 18 18 18 17 17 17 17 17 17 17 17 17 17 16 16 16 16 17 17
25 24 23 23 22 22 21 20 20 20 20 20 19 19 19 19 18 18 18 18 18 18 18 17 17 17 17 17 17 17 17 17 17 16 16 16 16 16 16 16 16 16 16
25 24 23 22 22 21 21 20 20 20 19 19 19 19 19 19 18 18 18 18 18 18 18 17 17 17 17 17 17 16 16 16 16 16 16 16 16 16 16 16 16 16 16
24 23 22 22 21 21 20 20 19 19 19 19 19 19 19 18 18 18 18 18 18 18 17 17 17 17 17 17 17 16 16 16 16 16 16 16 16 16 16 16 16 16 16
22 22 22 21 21 20 20 19 19 19 19 19 19 19 18 18 18 18 18 18 18 18 17 17 17 17 17 17 16 16 16 16 16 16 16 16 16 16 15 15 16 16 16
21 21 21 20 20 19 19 19 19 19 19 18 18 18 18 18 18 18 18 18 17 17 17 17 17 17 16 16 16 16 16 16 16 16 16 15 15 15 15 15 15 15 15
21 20 20 20 19 19 19 19 19 19 18 18 18 17 17 17 17 17 17 17 17 17 17 17 16 16 16 16 16 16 16 16 15 15 15 15 15 15 15 15 15 15 15
21 20 19 19 19 18 18 18 18 18 18 18 17 17 17 17 17 17 17 17 17 17 17 16 16 16 16 16 16 16 15 15 15 15 15 15 15 15 15 15 15 15 14
20 19 19 18 18 18 18 18 18 17 17 17 17 17 17 17 16 16 16 16 16 16 16 16 16 16 16 15 15 15 15 15 15 15 15 15 15 15 15 15 15 14 14
20 19 19 18 18 18 17 17 17 17 17 17 17 16 16 16 16 16 16 16 16 16 16 16 15 15 15 15 15 15 15 15 15 15 15 15 14 15 14 14 14 14 14
19 18 18 18 18 17 17 17 17 17 16 16 16 16 16 16 15 16 16 16 15 15 15 15 15 15 15 15 15 15 14 14 14 14 14 14 14 14 14 14 14 14 14
18 18 18 17 17 17 16 16 16 16 16 16 16 16 15 15 15 15 15 15 15 15 15 14 14 14 14 14 15 14 14 13 14 14 14 14 14 14 14 14 14 13 14
17 17 17 17 16 16 16 16 16 16 16 16 15 15 15 15 15 15 15 14 14 14 14 14 14 14 14 14 14 14 13 13 13 13 13 14 14 14 14 14 13 13 13
16 16 16 16 16 15 15 15 15 15 15 15 15 15 15 15 14 14 14 14 14 14 14 13 13 13 13 13 13 13 13 13 13 13 13 13 13 14 14 13 13 13 13
15 15 15 15 15 15 15 15 15 14 14 14 14 14 14 14 14 14 14 13 13 13 13 13 13 13 13 13 13 13 13 13 13 13 13 13 13 13 13 13 13 13 12
15 15 15 14 14 14 14 14 14 14 14 14 14 14 14 13 13 13 13 13 13 13 13 13 13 13 13 13 13 13 13 13 13 12 13 13 13 12 12 12 12 12 12
14 14 14 14 13 13 13 13 13 13 13 13 13 13 13 13 13 13 13 13 13 13 13 13 13 13 12 13 13 12 12 12 12 12 12 12 12 12 12 12 12 11 11
14 14 13 13 13 13 13 13 13 13 13 12 12 13 13 13 13 12 12 12 12 12 12 12 12 12 12 12 12 12 12 12 12 12 12 12 12 12 12 12 12 11 11
Wind_Speed
12 12 13 13 12 11 11 11 10 9 8 7 7 6 6 5 5 5 5 6 5 5 5 4 4 4 4 4 4 4 4 4 3 2 2 2 3 3 3 3 3 3 4
13 13 13 13 13 13 12 11 11 10 10 7 6 5 5 5 5 4 5 6 6 6 6 5 4 4 4 4 4 4 4 3 3 3 2 2 3 3 3 3 3 3 3
14 14 14 14 14 14 13 12 11 11 10 9 7 6 5 5 5 5 5 6 6 6 5 5 5 4 5 4 5 5 5 4 4 4 3 2 2 1 3 3 3 3 3
13 14 14 15 14 14 13 13 12 11 11 10 9 9 8 7 6 5 5 5 6 6 6 5 5 4 4 4 5 5 5 5 4 3 4 4 2 2 2 3 3 3 4
13 14 15 15 14 13 12 12 12 11 11 11 10 10 9 7 6 5 5 5 5 5 5 5 5 5 4 4 4 4 5 5 5 4 3 3 3 5 4 3 3 4 4
12 13 13 13 13 13 12 12 12 11 11 11 11 11 10 8 7 7 6 6 5 5 6 6 5 5 4 5 5 5 6 5 4 4 4 4 3 4 4 5 5 5 4
11 13 14 14 14 14 14 13 13 12 12 12 11 11 10 10 9 8 7 6 5 5 6 6 5 5 5 5 5 5 5 5 5 5 5 4 5 4 5 5 5 5 5
10 12 13 14 13 14 14 14 14 13 12 12 11 10 10 9 8 8 7 7 5 5 5 6 5 5 5 5 5 5 5 5 5 6 5 4 5 5 5 5 5 5 5
9 11 12 12 13 13 14 14 14 13 12 12 11 10 10 8 7 7 7 6 5 5 6 6 5 5 5 5 5 5 5 5 6 6 6 6 5 5 5 6 6 6 6
7 9 9 10 11 12 13 13 13 13 12 11 10 8 9 9 8 7 6 6 5 5 5 5 5 5 5 5 6 5 5 6 5 5 5 6 6 5 6 6 6 6 7
5 7 8 9 9 10 11 11 11 11 10 10 9 8 8 8 8 7 7 6 6 6 6 5 5 5 5 5 5 6 5 6 6 6 6 6 6 5 6 5 6 6 7
3 4 6 7 8 9 10 10 10 10 10 9 9 9 8 8 8 8 7 7 7 7 6 6 6 6 5 5 6 6 6 6 7 7 6 7 6 7 7 6 7 7 7
2 4 5 7 7 8 8 9 10 10 10 10 9 9 9 8 8 8 7 7 7 7 7 6 6 6 5 6 6 6 6 7 7 7 7 7 7 7 6 7 7 7 7
2 3 4 5 6 7 7 7 8 9 9 10 9 9 9 8 8 7 7 6 6 7 6 7 6 6 6 6 6 6 7 7 7 7 7 8 7 8 7 7 7 7 7
3 3 4 4 6 6 6 7 7 7 8 9 9 9 8 8 7 6 6 6 6 7 6 6 6 6 6 6 6 6 7 7 8 8 8 8 7 7 7 7 7 7 7
3 3 3 4 6 6 6 6 6 7 7 8 8 8 7 7 7 7 6 6 6 6 6 6 6 6 5 3 3 5 6 7 8 8 7 8 8 8 8 8 8 8 8
3 3 3 4 5 6 6 6 6 7 7 8 8 8 8 7 7 7 6 6 6 6 6 6 6 6 5 4 4 5 6 7 7 7 7 7 7 7 8 8 9 9 9
3 3 3 3 4 5 5 6 6 7 7 7 7 7 7 7 6 6 6 6 5 5 5 6 6 6 5 4 5 5 7 7 7 8 8 8 8 7 7 8 8 8 8
3 3 3 3 3 5 5 5 6 6 6 6 6 6 6 6 7 7 6 5 5 5 5 5 5 5 5 4 5 6 6 6 8 8 8 8 8 5 6 8 8 8 8
2 3 3 3 4 4 5 5 5 6 6 5 5 5 5 5 6 5 5 4 4 4 4 4 4 5 5 4 5 7 6 6 7 7 7 7 7 5 5 8 8 9 8
3 3 3 3 3 4 4 4 4 4 4 4 4 4 4 4 4 4 4 4 3 3 4 4 4 4 4 3 4 5 6 6 6 6 6 5 4 5 6 8 8 7 7
3 4 3 3 3 3 3 3 3 2 2 3 4 3 3 3 3 4 3 3 3 3 4 4 4 3 3 3 3 5 6 7 6 6 5 3 3 4 7 7 6 6 7
3 3 4 3 3 2 3 3 2 2 2 3 3 3 3 2 2 3 3 3 3 3 3 3 4 3 3 3 4 5 6 6 5 4 3 3 4 6 6 8 8 7 6
3 4 4 4 3 2 2 3 3 3 3 3 3 3 3 2 2 2 2 2 3 3 3 3 4 3 2 2 2 3 3 4 5 4 3 4 6 6 5 5 5 6 5
3 4 4 4 3 3 2 3 2 2 3 3 3 3 3 2 2 1 0 1 1 1 3 3 3 3 3 2 3 3 3 3 3 3 4 3 3 3 3 3 3 4 4
3 4 4 3 3 3 2 2 2 2 2 3 2 2 1 2 1 1 1 2 1 2 2 4 3 1 1 1 1 2 2 2 3 3 3 3 3 3 3 4 4 4 4
Wind_Direction
193 190 191 191 189 189 189 190 192 184 186 187 189 189 189 192 190 187 184 191 201 200 211 220 193 210 210 212 207 202 195 199 192 211 227 221 210 208 218 227 231 218 215
194 191 194 194 194 193 194 193 195 192 194 190 194 196 196 195 193 197 184 196 201 209 208 218 218 209 209 210 209 210 217 215 209 222 235 231 200 193 211 218 220 232 219
197 192 194 197 197 196 196 197 196 194 197 192 192 192 191 206 194 195 195 200 203 208 221 217 222 215 217 210 212 215 219 221 223 230 247 256 250 251 193 210 216 222 231
199 194 194 197 199 199 196 196 194 195 195 194 197 198 201 204 200 197 191 193 201 209 209 213 216 220 223 217 226 214 224 225 230 223 237 260 292 281 253 210 203 214 226
202 198 196 196 197 195 194 193 192 195 194 196 196 201 206 205 199 198 189 201 200 208 211 208 211 216 224 221 228 218 225 227 236 237 229 230 237 240 252 256 241 227 227
203 201 196 192 192 192 193 190 188 192 194 198 200 204 205 207 205 204 198 203 199 199 203 205 208 215 220 217 218 222 220 230 237 246 240 236 239 239 244 256 252 250 246
200 197 195 192 192 192 191 189 187 190 193 198 202 203 206 208 210 211 209 213 206 198 197 205 205 210 215 219 218 217 228 226 228 234 240 243 247 253 255 255 260 263 258
196 194 193 192 192 192 192 191 188 191 192 198 202 204 206 212 212 211 215 211 217 213 197 202 206 212 218 222 218 224 222 225 232 238 242 245 244 243 242 249 259 261 256
194 192 191 192 191 193 193 193 189 191 192 195 198 202 205 210 213 208 215 216 213 211 204 206 210 214 217 224 225 228 228 226 232 237 232 240 241 242 243 245 250 258 266
193 192 191 192 193 193 191 191 190 192 192 192 195 196 199 200 206 212 214 216 213 215 211 212 217 219 219 221 229 230 227 232 235 241 245 246 247 243 245 245 245 250 259
186 187 189 189 188 188 186 184 186 187 189 191 193 197 197 199 202 206 208 210 211 209 210 213 217 220 220 220 225 237 232 233 237 240 237 240 252 251 246 243 244 246 250
161 171 175 176 177 179 181 181 184 186 187 189 192 192 193 199 203 205 206 208 211 213 211 212 214 220 219 219 224 234 236 238 240 242 242 240 237 240 250 249 247 248 247
138 154 162 168 172 174 176 181 187 189 188 187 190 192 196 204 207 207 206 208 211 214 215 212 215 219 220 220 224 233 239 243 244 243 241 242 241 243 244 247 250 251 248
132 147 154 163 165 169 174 180 187 188 186 186 190 193 198 202 206 208 207 210 213 216 218 217 220 221 223 224 228 233 237 241 245 244 244 245 241 243 246 247 248 253 253
152 145 155 160 164 171 177 183 185 185 187 185 190 192 192 194 197 199 203 207 213 217 218 220 220 223 225 227 230 237 241 242 244 242 241 242 244 255 256 259 256 253 254
170 157 155 166 171 177 182 184 186 185 185 188 191 189 190 192 193 193 199 203 209 216 216 221 221 223 229 202 223 246 246 245 244 242 240 240 233 237 236 251 261 264 260
189 175 172 176 179 183 186 187 189 187 186 189 190 189 191 193 194 197 200 205 210 213 217 222 222 224 226 194 203 237 250 248 247 246 246 250 243 236 245 237 233 244 251
190 182 184 179 179 182 182 184 183 185 188 189 190 190 191 191 192 197 201 206 211 216 222 224 228 231 222 190 209 230 241 248 248 247 245 248 253 250 256 257 253 249 246
180 179 179 174 172 176 174 178 184 185 186 185 187 189 192 194 195 200 202 206 213 219 226 230 230 232 230 199 211 233 243 246 250 250 248 248 249 248 256 253 254 255 254
167 169 164 161 168 167 168 173 180 182 185 184 186 188 192 197 196 196 198 205 210 218 226 229 232 235 242 212 212 235 243 247 251 249 245 241 248 249 245 249 252 255 256
154 154 158 160 159 161 160 164 168 182 183 179 182 186 190 198 195 189 191 199 207 216 230 231 233 231 237 215 208 229 248 253 255 256 252 241 215 235 237 249 252 255 260
153 152 149 140 140 149 156 162 170 176 184 183 178 176 180 193 179 178 188 199 208 216 228 228 235 230 225 222 201 210 238 269 258 260 263 255 202 236 242 244 249 248 253
152 144 135 127 127 142 158 165 171 174 178 177 171 169 172 178 176 187 196 206 216 230 242 239 241 244 235 206 181 202 228 252 258 270 293 274 223 225 231 229 233 233 241
147 145 136 131 128 132 136 141 150 162 167 171 172 170 168 169 160 203 210 215 225 237 253 257 250 252 255 255 242 242 240 237 248 268 261 229 228 232 237 235 232 239 249
150 150 143 138 131 124 121 125 141 161 163 163 172 180 171 148 149 148 263 240 275 298 288 282 269 267 265 319 346 281 267 270 270 269 262 263 262 256 255 254 258 257 249
145 142 138 138 133 126 116 114 130 154 170 171 171 174 170 155 165 152 132 61 9 38 4 341 315 315 11 20 1 340 315 302 286 277 269 273 269 266 266 264 261 257 258
Height
1517 1520 1522 1525 1527 1528 1530 1531 1534 1535 1536 1538 1540 1541 1542 1543 1545 1546 1546 1547 1548 1549 1550 1552 1552 1553 1554 1555 1555 1556 1557 1557 1558 1559 1560 1560 1560 1560 1560 1561 1561 1562 1562
1513 1516 1519 1522 1524 1526 1527 1529 1531 1533 1535 1537 1538 1540 1542 1543 1544 1545 1545 1546 1547 1548 1549 1549 1551 1551 1552 1553 1553 1554 1555 1556 1557 1558 1558 1558 1560 1558 1559 1559 1559 1559 1560
1508 1512 1515 1518 1521 1523 1525 1527 1529 1531 1533 1535 1537 1539 1540 1541 1543 1543 1544 1545 1546 1546 1547 1548 1549 1549 1551 1551 1551 1552 1553 1554 1555 1556 1557 1557 1556 1557 1558 1557 1557 1557 1558
1504 1508 1511 1514 1517 1520 1522 1524 1526 1528 1530 1532 1534 1536 1538 1540 1541 1542 1543 1543 1544 1545 1546 1546 1547 1548 1549 1549 1550 1551 1551 1552 1553 1554 1554 1555 1555 1556 1556 1557 1556 1555 1555
1500 1503 1507 1510 1514 1517 1519 1521 1523 1525 1527 1529 1531 1533 1535 1537 1539 1540 1541 1541 1542 1543 1544 1544 1545 1545 1547 1547 1547 1548 1549 1549 1551 1552 1552 1552 1553 1554 1554 1554 1554 1554 1554
1496 1500 1504 1507 1510 1513 1516 1518 1519 1521 1524 1526 1528 1530 1532 1534 1536 1537 1538 1539 1540 1541 1541 1542 1542 1543 1544 1544 1545 1545 1546 1547 1547 1548 1550 1550 1551 1551 1552 1552 1552 1552 1552
1492 1495 1499 1502 1505 1508 1510 1513 1515 1518 1520 1523 1525 1527 1529 1531 1532 1534 1536 1537 1538 1538 1538 1540 1540 1541 1541 1542 1542 1542 1543 1544 1544 1545 1546 1547 1548 1548 1549 1549 1549 1549 1549
1488 1491 1494 1498 1501 1504 1507 1509 1512 1514 1517 1519 1521 1524 1525 1528 1530 1531 1533 1534 1535 1536 1536 1536 1537 1538 1538 1539 1539 1540 1540 1541 1541 1543 1543 1543 1544 1545 1546 1546 1546 1546 1546
1484 1487 1490 1494 1497 1500 1503 1506 1508 1510 1513 1515 1518 1520 1522 1524 1526 1528 1529 1531 1531 1533 1533 1534 1534 1535 1535 1536 1537 1538 1537 1538 1539 1540 1540 1540 1541 1542 1542 1543 1543 1544 1543
1482 1485 1488 1491 1494 1497 1500 1503 1505 1507 1510 1512 1515 1517 1519 1521 1523 1525 1526 1527 1528 1529 1530 1531 1532 1532 1533 1533 1534 1535 1535 1535 1536 1536 1536 1537 1538 1538 1539 1539 1539 1540 1540
1480 1482 1485 1488 1491 1494 1497 1499 1501 1504 1507 1509 1511 1514 1516 1518 1520 1521 1522 1524 1525 1526 1526 1527 1528 1529 1529 1530 1530 1532 1532 1532 1533 1533 1533 1533 1534 1535 1535 1535 1536 1536 1536
1479 1481 1483 1485 1488 1491 1494 1496 1498 1501 1503 1506 1508 1511 1513 1515 1516 1518 1519 1520 1521 1523 1523 1524 1525 1525 1526 1527 1527 1528 1529 1529 1530 1530 1530 1530 1530 1530 1531 1531 1532 1532 1531
1478 1480 1481 1483 1485 1488 1491 1493 1496 1498 1501 1503 1505 1507 1509 1511 1513 1514 1515 1517 1518 1519 1520 1520 1521 1522 1523 1524 1524 1525 1525 1526 1526 1526 1526 1526 1526 1526 1527 1527 1527 1527 1527
1477 1478 1480 1481 1484 1486 1488 1490 1493 1496 1498 1500 1502 1504 1506 1508 1509 1511 1512 1514 1515 1516 1516 1517 1518 1518 1519 1520 1520 1521 1521 1521 1522 1522 1522 1522 1522 1522 1523 1523 1522 1522 1522
1476 1477 1478 1480 1482 1484 1486 1488 1491 1493 1495 1497 1499 1501 1503 1505 1506 1507 1509 1510 1511 1512 1513 1513 1514 1515 1516 1516 1516 1516 1517 1517 1517 1517 1518 1518 1518 1518 1518 1519 1518 1518 1518
1475 1476 1477 1478 1480 1481 1483 1486 1488 1490 1492 1494 1496 1498 1500 1501 1503 1504 1505 1506 1507 1509 1509 1510 1510 1511 1512 1512 1512 1512 1512 1513 1513 1513 1513 1513 1513 1513 1514 1513 1513 1513 1513
1473 1474 1476 1477 1478 1479 1481 1483 1485 1487 1489 1491 1493 1495 1497 1498 1500 1501 1502 1503 1504 1505 1505 1506 1506 1507 1508 1508 1508 1508 1508 1508 1508 1508 1508 1509 1510 1509 1509 1508 1508 1508 1508
1472 1473 1474 1475 1477 1478 1480 1481 1483 1485 1487 1488 1490 1492 1493 1495 1496 1497 1498 1499 1500 1501 1502 1502 1503 1503 1503 1504 1504 1504 1504 1504 1504 1504 1504 1504 1504 1504 1504 1504 1504 1504 1503
1470 1472 1473 1473 1475 1476 1477 1479 1480 1482 1484 1486 1487 1489 1490 1491 1492 1493 1494 1495 1496 1496 1497 1498 1499 1499 1499 1499 1499 1500 1499 1499 1499 1500 1500 1500 1500 1500 1500 1500 1499 1499 1498
1469 1470 1471 1472 1473 1474 1475 1476 1478 1479 1481 1482 1484 1486 1487 1488 1489 1490 1491 1492 1492 1493 1493 1494 1494 1494 1495 1495 1495 1495 1495 1495 1495 1495 1495 1495 1495 1495 1495 1495 1495 1494 1494
1467 1468 1470 1471 1471 1472 1473 1474 1475 1477 1478 1480 1481 1483 1484 1486 1486 1487 1488 1489 1489 1489 1490 1490 1490 1490 1490 1490 1490 1490 1490 1491 1491 1491 1491 1490 1490 1490 1490 1490 1490 1490 1490
1466 1467 1468 1469 1469 1470 1471 1472 1473 1474 1476 1478 1479 1480 1481 1483 1484 1484 1485 1486 1486 1486 1487 1487 1486 1486 1486 1486 1485 1485 1486 1486 1487 1487 1487 1486 1485 1485 1485 1485 1485 1485 1485
1464 1465 1466 1467 1468 1469 1469 1470 1471 1472 1473 1475 1476 1477 1479 1480 1481 1481 1482 1483 1483 1484 1484 1483 1483 1483 1483 1482 1482 1482 1482 1482 1482 1482 1482 1481 1480 1480 1480 1480 1480 1480 1480
1463 1464 1465 1466 1467 1468 1468 1468 1469 1470 1471 1473 1474 1475 1476 1477 1478 1479 1480 1481 1481 1481 1481 1480 1479 1479 1479 1479 1479 1478 1478 1478 1478 1478 1477 1476 1476 1476 1476 1475 1475 1476 1476
1463 1464 1464 1465 1466 1466 1466 1466 1467 1468 1469 1470 1471 1473 1474 1475 1476 1476 1477 1478 1478 1478 1478 1477 1476 1476 1476 1476 1475 1475 1475 1475 1474 1473 1473 1473 1473 1472 1472 1472 1472 1472 1472
1461 1462 1463 1464 1465 1465 1465 1466 1466 1466 1467 1468 1469 1471 1472 1473 1474 1475 1476 1476 1476 1475 1474 1474 1473 1473 1473 1473 1472 1472 1472 1471 1471 1471 1470 1470 1470 1469 1468 1468 1468 1468 1468